KC4YVV-22 Weather Reports


time (UTC)temp
C
wind
direction
speed
KPH
gust
KPH
rain 1hr
cm
rain 24hr
cm
rain mn
cm
humidity
%
barometer
mb
20260906114541 22 0 0.0 0.0 0.00 0.00 0.00 61 1014.5
20260906113044 22 0 0.0 0.0 0.00 0.00 0.00 61 1014.3
20260906111541 22 0 0.0 0.0 0.00 0.00 0.00 62 1014.3
20260906110042 22 0 0.0 0.0 0.00 0.00 0.00 62 1014.1
20260906104542 22 0 0.0 0.0 0.00 0.00 0.00 62 1014.0
20260906103040 22 0 0.0 0.0 0.00 0.00 0.00 63 1013.9
20260906101538 22 0 0.0 0.0 0.00 0.00 0.00 63 1013.9
20260906100043 22 0 0.0 0.0 0.00 0.00 0.00 63 1013.8
20260906094541 22 0 0.0 0.0 0.00 0.00 0.00 61 1013.9
20260906093049 22 0 0.0 0.0 0.00 0.00 0.00 60 1013.9
20260906091543 22 0 0.0 0.0 0.00 0.00 0.00 60 1013.8
20260906090045 22 0 0.0 0.0 0.00 0.00 0.00 59 1014.0
20260906084545 22 0 0.0 0.0 0.00 0.00 0.00 59 1014.0
20260906083043 22 0 0.0 0.0 0.00 0.00 0.00 61 1014.0
20260906081551 22 0 0.0 0.0 0.00 0.00 0.00 62 1014.2
20260906080042 22 0 0.0 0.0 0.00 0.00 0.00 62 1014.3
20260906074546 22 0 0.0 0.0 0.00 0.00 0.00 62 1014.1
20260906073054 22 0 0.0 0.0 0.00 0.00 0.00 62 1013.5
20260906071544 22 0 0.0 0.0 0.00 0.00 0.00 62 1013.6
20260906070053 22 0 0.0 0.0 0.00 0.00 0.00 63 1013.4
20260906064543 22 0 0.0 0.0 0.00 0.00 0.00 62 1013.3
20260906063044 22 0 0.0 0.0 0.00 0.00 0.00 64 1013.6
20260906061553 22 0 0.0 0.0 0.00 0.00 0.00 64 1013.7
20260906060043 22 0 0.0 0.0 0.00 0.00 0.00 65 1013.7
20260906054544 22 0 0.0 0.0 0.00 0.00 0.00 64 1013.6
20260906053044 23 0 0.0 0.0 0.00 0.00 0.00 64 1013.8
20260906051540 22 0 0.0 0.0 0.00 0.00 0.00 64 1014.1
20260906050101 22 0 0.0 0.0 0.00 0.00 0.00 66 1014.4
20260906044538 22 0 0.0 0.0 0.00 0.00 0.00 67 1014.5
20260906043052 23 0 0.0 0.0 0.00 0.00 0.00 67 1014.5
20260906041539 23 0 0.0 0.0 0.00 0.00 0.00 68 1014.8
20260906040054 23 0 0.0 0.0 0.00 0.00 0.00 69 1014.9
20260906034535 23 0 0.0 0.0 0.00 0.00 0.00 70 1014.6
20260906033044 23 0 0.0 0.0 0.00 0.00 0.00 70 1014.7
20260906031540 23 0 0.0 0.0 0.00 0.00 0.00 70 1014.6
20260906030040 23 0 0.0 0.0 0.00 0.00 0.00 71 1014.4
20260906024541 23 0 0.0 0.0 0.00 0.00 0.00 71 1014.1
20260906023054 24 0 0.0 0.0 0.00 0.00 0.00 71 1013.8
20260906021540 24 0 0.0 0.0 0.00 0.00 0.00 71 1013.7
20260906020039 24 0 0.0 0.0 0.00 0.00 0.00 72 1013.8
20260906014551 24 0 0.0 0.0 0.00 0.00 0.00 74 1013.7
20260906013039 24 0 0.0 0.0 0.00 0.00 0.00 75 1013.7
20260906011550 25 0 0.0 0.0 0.00 0.00 0.00 77 1013.7
20260906010043 25 0 0.0 0.0 0.00 0.00 0.00 78 1013.6
20260906004540 25 0 0.0 0.0 0.00 0.00 0.00 80 1013.8
20260906003042 25 0 0.0 0.0 0.00 0.00 0.00 81 1013.7
20260906001544 25 0 0.0 0.0 0.00 0.00 0.00 82 1013.8
20260906000038 26 0 0.0 0.0 0.00 0.00 0.00 82 1013.7
20260905234551 26 0 0.0 0.0 0.00 0.00 0.00 82 1013.6
20260905233040 27 0 0.0 0.0 0.00 0.00 0.00 80 1013.5
20260905231539 28 0 0.0 0.0 0.00 0.00 0.00 78 1013.5
20260905230044 29 0 0.0 0.0 0.00 0.00 0.00 74 1013.1
20260905224539 30 0 0.0 0.0 0.00 0.00 0.00 71 1013.2
20260905223039 30 259 0.0 1.6 0.00 0.00 0.00 70 1013.4
20260905221542 30 259 1.6 4.8 0.00 0.00 0.00 69 1013.5
20260905220041 28 0 0.0 0.0 0.00 0.00 0.00 77 1013.7
20260905214541 26 0 0.0 0.0 0.00 0.00 0.00 82 1013.6
20260905213044 26 0 0.0 0.0 0.00 0.00 0.00 81 1013.9
20260905211541 26 0 0.0 0.0 0.00 0.00 0.00 81 1014.1
20260905210039 26 0 0.0 0.0 0.00 0.00 0.00 81 1013.9
20260905204537 26 0 0.0 0.0 0.00 0.00 0.00 80 1014.0
20260905203039 26 0 0.0 4.8 0.00 0.00 0.00 79 1014.4
20260905201538 26 0 0.0 0.0 0.00 0.00 0.00 78 1014.5
20260905200046 26 0 0.0 0.0 0.00 0.00 0.00 79 1014.4
20260905194538 27 0 0.0 0.0 0.00 0.00 0.00 79 1014.7
20260905193041 27 0 0.0 0.0 0.00 0.00 0.00 77 1015.0
20260905191538 28 0 0.0 0.0 0.00 0.00 0.00 74 1015.2
20260905190048 30 0 0.0 0.0 0.00 0.00 0.00 68 1014.9
20260905184555 32 0 0.0 3.2 0.00 0.00 0.00 63 1015.0
20260905183046 34 0 0.0 3.2 0.00 0.00 0.00 56 1014.6
20260905181544 35 0 3.2 8.0 0.00 0.00 0.00 54 1014.1
20260905180038 34 0 0.0 0.0 0.00 0.00 0.00 54 1014.4
20260905174541 33 0 0.0 9.7 0.00 0.00 0.00 58 1014.4
20260905173039 33 0 0.0 6.4 0.00 0.00 0.00 58 1014.7
20260905171538 32 0 3.2 9.7 0.00 0.00 0.00 61 1014.7
20260905170041 32 0 0.0 0.0 0.00 0.00 0.00 61 1015.3
20260905164541 32 0 0.0 0.0 0.00 0.00 0.00 63 1015.7
20260905163040 32 0 0.0 0.0 0.00 0.00 0.00 64 1015.7
20260905161538 31 0 0.0 0.0 0.00 0.00 0.00 66 1015.8
20260905160040 30 0 0.0 0.0 0.00 0.00 0.00 70 1015.8
20260905154542 30 0 0.0 0.0 0.00 0.00 0.00 72 1015.7
20260905153051 29 0 0.0 0.0 0.00 0.00 0.00 75 1016.0
20260905151544 28 0 0.0 0.0 0.00 0.00 0.00 77 1016.2
20260905150044 28 0 0.0 0.0 0.00 0.00 0.00 77 1016.2
20260905144540 28 0 0.0 0.0 0.00 0.00 0.00 79 1016.3
20260905143040 27 0 0.0 0.0 0.00 0.00 0.00 81 1016.3
20260905141538 26 0 0.0 0.0 0.00 0.00 0.00 82 1016.4
20260905140041 26 0 0.0 0.0 0.00 0.00 0.00 78 1016.6
20260905134539 25 0 0.0 0.0 0.00 0.00 0.00 72 1016.7
20260905133037 25 0 0.0 0.0 0.00 0.00 0.00 66 1016.7
20260905131557 24 0 0.0 0.0 0.00 0.00 0.00 62 1016.7
20260905130046 23 0 0.0 0.0 0.00 0.00 0.00 59 1016.9
20260905124536 23 0 0.0 0.0 0.00 0.00 0.00 59 1016.9
20260905123037 23 0 0.0 0.0 0.00 0.00 0.00 59 1016.8
20260905121540 22 0 0.0 0.0 0.00 0.00 0.00 60 1016.6
20260905120042 22 0 0.0 0.0 0.00 0.00 0.00 61 1016.6